Location: Chequamegon National Forest
(46.1070°N, 90.8420°W)
Time: 16:40:54
(UTC-05:00)

ISS - All Passes

Search period start: 29 August 2016 00:00
Search period end: 08 September 2016 00:00
Orbit: 402 x 406 km, 51.6° (Epoch: 29 August)

Date Brightness Start Highest point End Pass type
(mag) Time Alt. Az. Time Alt. Az. Time Alt. Az.
29 Aug - 08:10:44 10° S 08:13:09 19° SE 08:15:35 10° E daylight
29 Aug - 09:46:01 10° WSW 09:49:19 74° NNW 09:52:36 10° ENE daylight
29 Aug - 11:23:08 10° WNW 11:26:07 31° N 11:29:06 10° ENE daylight
29 Aug - 13:00:00 10° WNW 13:03:07 38° NNE 13:06:14 10° E daylight
29 Aug - 14:36:28 10° WNW 14:39:42 56° SSW 14:42:55 10° SE daylight
30 Aug - 07:20:02 10° SSE 07:20:57 11° SE 07:21:54 10° ESE daylight
30 Aug - 08:53:37 10° SW 08:56:52 69° SSE 09:00:10 10° ENE daylight
30 Aug - 10:30:28 10° W 10:33:32 35° NNW 10:36:37 10° ENE daylight
30 Aug - 12:07:31 10° WNW 12:10:32 32° N 12:13:33 10° ENE daylight
30 Aug - 13:44:00 10° WNW 13:47:18 87° NNE 13:50:35 10° ESE daylight
30 Aug - 15:21:18 10° W 15:23:23 16° SW 15:25:27 10° S daylight
31 Aug - 08:01:26 10° SW 08:04:31 39° SE 08:07:37 10° ENE daylight
31 Aug - 09:37:47 10° W 09:40:59 45° NNW 09:44:10 10° ENE daylight
31 Aug - 11:14:58 10° WNW 11:17:56 30° N 11:20:54 10° ENE daylight
31 Aug - 12:51:34 10° WNW 12:54:50 57° NNE 12:58:04 10° ESE daylight
31 Aug - 14:28:18 10° W 14:31:08 27° SW 14:33:58 10° SSE daylight
01 Sep - 07:09:34 10° SSW 07:12:13 23° SE 07:14:53 10° E daylight
01 Sep - 08:45:12 10° WSW 08:48:27 64° NNW 08:51:45 10° ENE daylight
01 Sep - 10:22:21 10° WNW 10:25:19 30° N 10:28:17 10° ENE daylight
01 Sep - 11:59:08 10° WNW 12:02:17 41° NNE 12:05:27 10° E daylight
01 Sep - 13:35:38 10° WNW 13:38:49 46° SW 13:41:59 10° SE daylight
02 Sep - 06:18:20 10° SSE 06:19:59 13° SE 06:21:40 10° ESE daylight
02 Sep - 07:52:43 10° WSW 07:56:00 81° SSE 07:59:18 10° ENE daylight
02 Sep - 09:29:40 10° WNW 09:32:43 33° N 09:35:45 10° ENE daylight
02 Sep - 11:06:40 10° WNW 11:09:43 33° N 11:12:45 10° ENE daylight
02 Sep - 12:43:07 10° WNW 12:46:25 80° SSW 12:49:42 10° ESE daylight
02 Sep - 14:20:48 10° WSW 14:22:25 13° SW 14:24:01 10° SSW daylight
03 Sep - 07:00:26 10° SW 07:03:35 47° SE 07:06:47 10° ENE daylight
03 Sep - 08:36:59 10° W 08:40:07 41° NNW 08:43:17 10° ENE daylight
03 Sep - 10:14:08 10° WNW 10:17:06 30° N 10:20:04 10° ENE daylight
03 Sep - 11:50:40 10° WNW 11:53:57 65° NNE 11:57:13 10° ESE daylight
03 Sep - 13:27:32 10° W 13:30:11 22° SW 13:32:49 10° SSE daylight
04 Sep - 06:08:25 10° SSW 06:11:15 27° SE 06:14:07 10° E daylight
04 Sep - 07:44:20 10° WSW 07:47:35 56° NNW 07:50:50 10° ENE daylight
04 Sep - 09:21:31 10° WNW 09:24:28 29° N 09:27:25 10° ENE daylight
04 Sep - 10:58:13 10° WNW 11:01:26 45° NNE 11:04:36 10° E daylight
04 Sep - 12:34:46 10° WNW 12:37:52 38° SW 12:40:57 10° SSE daylight
05 Sep - 05:16:53 10° S 05:18:59 16° SE 05:21:06 10° E visible
05 Sep - 06:51:47 10° WSW 06:55:04 86° NW 06:58:23 10° ENE daylight
05 Sep - 08:28:50 10° WNW 08:31:50 32° N 08:34:51 10° ENE daylight
05 Sep - 10:05:45 10° WNW 10:08:50 35° NNE 10:11:54 10° E daylight
05 Sep - 11:42:12 10° WNW 11:45:29 68° SSW 11:48:44 10° SE daylight
05 Sep - 13:20:34 10° WSW 13:21:24 11° SW 13:22:13 10° SSW daylight
06 Sep - 05:59:25 10° SW 06:02:38 57° SSE 06:05:53 10° ENE visible
06 Sep - 07:36:07 10° W 07:39:13 38° NNW 07:42:20 10° ENE daylight
06 Sep - 09:13:13 10° WNW 09:16:13 31° N 09:19:12 10° ENE daylight
06 Sep - 10:49:43 10° WNW 10:53:01 75° NNE 10:56:18 10° ESE daylight
06 Sep - 12:26:46 10° W 12:29:11 19° SW 12:31:33 10° S daylight
07 Sep - 05:07:16 10° SSW 05:10:15 32° SE 05:13:15 10° ENE visible
07 Sep - 06:43:25 10° W 06:46:38 50° NNW 06:49:51 10° ENE daylight
07 Sep - 08:20:37 10° WNW 08:23:34 29° N 08:26:30 10° ENE daylight
07 Sep - 09:57:16 10° WNW 10:00:29 50° NNE 10:03:42 10° E daylight
07 Sep - 11:33:53 10° WNW 11:36:52 32° SW 11:39:50 10° SSE daylight
